TimeGMT,TemperatureF,Dew PointF,Humidity,Sea Level PressureIn,VisibilityMPH,Wind Direction,Wind SpeedMPH,Gust SpeedMPH,PrecipitationIn,Events,Conditions,WindDirDegrees,DateUTC
12:00 AM,42,41,94,28.98,7,WSW,4.5,,,,Mist,240,2014-01-17 00:00:00
12:00 AM,41.0,41.0,100,28.97,6.2,WSW,4.6,-,N/A,,Mostly Cloudy,240,2014-01-17 00:00:00
12:30 AM,41.0,41.0,100,28.97,6.2,WSW,4.6,-,N/A,,Mostly Cloudy,250,2014-01-17 00:30:00
1:00 AM,42,41,96,29.00,7,WSW,4.5,,,,Mist,240,2014-01-17 01:00:00
1:00 AM,41.0,41.0,100,28.97,6.2,WSW,4.6,-,N/A,,Mostly Cloudy,240,2014-01-17 01:00:00
1:30 AM,41.0,41.0,100,29.00,6.2,SW,4.6,-,N/A,,Mostly Cloudy,230,2014-01-17 01:30:00
2:00 AM,42,41,95,29.01,7,WSW,6.7,,,,Mist,250,2014-01-17 02:00:00
2:00 AM,41.0,41.0,100,29.00,6.2,WSW,6.9,-,N/A,,Mostly Cloudy,250,2014-01-17 02:00:00
2:30 AM,42.8,41.0,93,29.00,6.2,WSW,8.1,-,N/A,,Mostly Cloudy,250,2014-01-17 02:30:00
3:00 AM,42,41,97,29.02,7,West,4.5,,,,Mist,280,2014-01-17 03:00:00
3:00 AM,42.8,41.0,93,29.00,6.2,Variable,3.5,-,N/A,,Mostly Cloudy,0,2014-01-17 03:00:00
3:30 AM,41.0,41.0,100,29.00,6.2,WSW,6.9,-,N/A,,Scattered Clouds,240,2014-01-17 03:30:00
4:00 AM,40,40,99,29.03,12,West,4.5,,,,Scattered Clouds,260,2014-01-17 04:00:00
4:00 AM,41.0,39.2,93,29.03,6.2,West,4.6,-,N/A,,Partly Cloudy,260,2014-01-17 04:00:00
4:30 AM,41.0,41.0,100,29.03,6.2,WSW,6.9,-,N/A,,Partly Cloudy,240,2014-01-17 04:30:00
5:00 AM,41,40,94,29.04,12,SW,6.7,,,,Scattered Clouds,230,2014-01-17 05:00:00
5:00 AM,41.0,39.2,93,29.03,6.2,SW,5.8,-,N/A,,Partly Cloudy,230,2014-01-17 05:00:00
5:30 AM,41.0,41.0,100,29.03,6.2,WNW,6.9,-,N/A,,Mostly Cloudy,290,2014-01-17 05:30:00
6:00 AM,40,40,98,29.05,11,SW,2.2,,,Rain,Light Rain Showers,230,2014-01-17 06:00:00
6:00 AM,41.0,39.2,93,29.03,6.2,Variable,2.3,-,N/A,Rain,Light Rain Showers,0,2014-01-17 06:00:00
6:30 AM,41.0,39.2,93,29.03,6.2,SW,4.6,-,N/A,,Scattered Clouds,230,2014-01-17 06:30:00
7:00 AM,41,40,95,29.07,12,SW,4.5,,,Rain,Light Rain Showers,230,2014-01-17 07:00:00
7:00 AM,41.0,41.0,100,29.06,6.2,SW,4.6,-,N/A,,Mostly Cloudy,230,2014-01-17 07:00:00
7:30 AM,41.0,41.0,100,29.06,6.2,SW,8.1,-,N/A,,Mostly Cloudy,230,2014-01-17 07:30:00
8:00 AM,41,40,95,29.08,12,WSW,6.7,,,Rain,Light Rain Showers,240,2014-01-17 08:00:00
8:00 AM,41.0,41.0,100,29.06,6.2,WSW,6.9,-,N/A,,Mostly Cloudy,240,2014-01-17 08:00:00
8:30 AM,41.0,39.2,93,29.09,6.2,SW,8.1,-,N/A,,Mostly Cloudy,230,2014-01-17 08:30:00
9:00 AM,41,41,98,29.10,16,SW,8.9,,,,Partly Cloudy,230,2014-01-17 09:00:00
9:00 AM,41.0,41.0,100,29.09,6.2,SW,8.1,-,N/A,,Mostly Cloudy,230,2014-01-17 09:00:00
9:30 AM,41.0,41.0,100,29.09,6.2,SW,6.9,-,N/A,,Mostly Cloudy,220,2014-01-17 09:30:00
10:00 AM,42,41,95,29.11,16,SSW,6.7,,,,Mostly Cloudy,210,2014-01-17 10:00:00
10:00 AM,42.8,41.0,93,29.09,6.2,SSW,6.9,-,N/A,,Scattered Clouds,210,2014-01-17 10:00:00
10:30 AM,41.0,41.0,100,29.09,6.2,South,6.9,-,N/A,,Partly Cloudy,190,2014-01-17 10:30:00
11:00 AM,42,41,96,29.12,12,South,6.7,,,,Scattered Clouds,190,2014-01-17 11:00:00
11:00 AM,42.8,41.0,93,29.12,6.2,South,9.2,-,N/A,,Partly Cloudy,190,2014-01-17 11:00:00
11:30 AM,44.6,42.8,93,29.12,6.2,South,4.6,-,N/A,,Partly Cloudy,190,2014-01-17 11:30:00
12:00 PM,46,43,87,29.12,16,SW,6.7,,,,Partly Cloudy,220,2014-01-17 12:00:00
12:00 PM,46.4,42.8,87,29.12,6.2,SW,6.9,-,N/A,,Partly Cloudy,220,2014-01-17 12:00:00
12:30 PM,46.4,42.8,87,29.12,6.2,SSW,6.9,-,N/A,,Scattered Clouds,210,2014-01-17 12:30:00
1:00 PM,46,43,85,29.12,25,SSW,8.9,,,,Partly Cloudy,210,2014-01-17 13:00:00
1:00 PM,46.4,42.8,87,29.09,6.2,SSW,9.2,-,N/A,,Scattered Clouds,210,2014-01-17 13:00:00
1:30 PM,46.4,42.8,87,29.09,6.2,SW,10.4,-,N/A,,Mostly Cloudy,220,2014-01-17 13:30:00
2:00 PM,47,43,80,29.12,25,SSW,6.7,,,,Scattered Clouds,210,2014-01-17 14:00:00
2:00 PM,46.4,42.8,87,29.09,6.2,SSW,6.9,-,N/A,,Mostly Cloudy,210,2014-01-17 14:00:00
2:30 PM,46.4,42.8,87,29.09,6.2,SSW,8.1,-,N/A,,Mostly Cloudy,210,2014-01-17 14:30:00
3:00 PM,46,43,84,29.12,11,SSW,8.9,,,,Mostly Cloudy,200,2014-01-17 15:00:00
3:00 PM,46.4,42.8,87,29.09,6.2,SSW,8.1,-,N/A,,Mostly Cloudy,200,2014-01-17 15:00:00
3:30 PM,46.4,42.8,87,29.12,4.3,SW,10.4,-,N/A,Rain,Light Rain Showers,220,2014-01-17 15:30:00
4:00 PM,45,42,87,29.13,4,WSW,8.9,,,Rain,Light Rain Showers,240,2014-01-17 16:00:00
4:00 PM,44.6,42.8,93,29.12,4.3,WSW,8.1,-,N/A,Rain,Light Rain Showers,240,2014-01-17 16:00:00
4:30 PM,44.6,42.8,93,29.12,6.2,SSW,8.1,-,N/A,,Mostly Cloudy,210,2014-01-17 16:30:00
5:00 PM,44,42,88,29.14,12,SW,8.9,,,Rain,Light Rain Showers,220,2014-01-17 17:00:00
5:00 PM,44.6,41.0,87,29.12,6.2,SW,9.2,-,N/A,,Mostly Cloudy,220,2014-01-17 17:00:00
5:30 PM,42.8,41.0,93,29.12,6.2,SW,6.9,-,N/A,,Mostly Cloudy,220,2014-01-17 17:30:00
6:00 PM,43,42,93,29.14,16,SSW,8.9,,,,Partly Cloudy,200,2014-01-17 18:00:00
6:00 PM,42.8,41.0,93,29.12,6.2,SSW,6.9,-,N/A,,Mostly Cloudy,200,2014-01-17 18:00:00
6:30 PM,42.8,41.0,93,29.15,6.2,South,5.8,-,N/A,,Mostly Cloudy,180,2014-01-17 18:30:00
7:00 PM,43,41,91,29.16,12,SSW,8.9,,,,Partly Cloudy,200,2014-01-17 19:00:00
7:00 PM,42.8,41.0,93,29.15,6.2,SSW,8.1,-,N/A,,Mostly Cloudy,200,2014-01-17 19:00:00
7:30 PM,42.8,41.0,93,29.15,6.2,SW,8.1,-,N/A,Rain,Light Rain Showers,230,2014-01-17 19:30:00
8:00 PM,43,41,91,29.17,11,South,6.7,,,Rain,Light Rain Showers,170,2014-01-17 20:00:00
8:00 PM,42.8,41.0,93,29.15,6.2,South,6.9,-,N/A,Rain,Light Rain Showers,170,2014-01-17 20:00:00
8:30 PM,42.8,41.0,93,29.15,6.2,South,5.8,-,N/A,,Mostly Cloudy,180,2014-01-17 20:30:00
9:00 PM,42,41,94,29.18,9,SW,8.9,,,Rain,Light Rain Showers,220,2014-01-17 21:00:00
9:00 PM,42.8,41.0,93,29.18,6.2,SW,8.1,-,N/A,Rain,Light Rain Showers,220,2014-01-17 21:00:00
9:30 PM,42.8,41.0,93,29.18,6.2,SW,8.1,-,N/A,,Mostly Cloudy,220,2014-01-17 21:30:00
10:00 PM,42,41,93,29.18,12,SW,8.9,,,Rain,Light Rain Showers,220,2014-01-17 22:00:00
10:00 PM,42.8,41.0,93,29.18,6.2,SW,8.1,-,N/A,Rain,Light Rain Showers,220,2014-01-17 22:00:00
10:30 PM,42.8,41.0,93,29.18,6.2,SSW,5.8,-,N/A,,Mostly Cloudy,210,2014-01-17 22:30:00
11:00 PM,42,41,95,29.18,16,SSW,6.7,,,,Mostly Cloudy,210,2014-01-17 23:00:00
11:00 PM,42.8,41.0,93,29.18,6.2,SSW,5.8,-,N/A,,Mostly Cloudy,210,2014-01-17 23:00:00
11:30 PM,41.0,41.0,100,29.18,6.2,WSW,4.6,-,N/A,,Mostly Cloudy,240,2014-01-17 23:30:00